Location: Newark
(6.1731°S, 35.7419°E)
Time: 14:13:19
(UTC+00:00)

Altair - Pass Details

Date: 23 February 2020
Orbit: 1501 x 1682 km, 47.2° (Epoch: 08 April)

Event Time Altitude Azimuth Distance (km) Brightness Sun altitude
Rises 19:05:28 0° 227° (SW) 4,651 10.7 -45.9°
Reaches altitude 10° 19:08:32 10° 229° (SW) 3,659 10.0 -46.6°
Enters shadow 19:13:55 39° 244° (WSW) 2,106 8.4 -47.9°
